カタログに戻る

INTELSAT 1-F1

運用中通信GEO
NORAD 1317·PAYLOAD· XX

打ち上げ Apr 6, 1965 から Cape Canaveral Space Force Station

Loading…

TLE

最新Source: Space-Track

元期: Sep 14, 2026, 13:20 UTC

1 01317U 65028A   26257.55561957  .00000117  00000-0  00000-0 0  9997
2 01317   7.3689  62.7666 0008589 146.4194 197.2708  1.00218013128066

AllMySatでINTELSAT 1-F1をリアルタイム追跡

Download on the App Store